Change the Weather History Date:

Tuesday, October 1, 2013

  Actual Average Record
Temperature  
Mean Temperature 54 °F -  
Max Temperature 68 °F 62 °F 91 °F (2005)
Min Temperature 39 °F 35 °F 19 °F (2004)
Degree Days  
Heating Degree Days 12    
Growing Degree Days 4 (Base 50)    
Moisture  
Dew Point 28 °F    
Average Humidity 41    
Maximum Humidity 65    
Minimum Humidity 19    
Precipitation  
Precipitation 0.00 in - - ()
Sea Level Pressure  
Sea Level Pressure 29.86 in    
Wind  
Wind Speed 12 mph (WSW)    
Max Wind Speed 26 mph    
Max Gust Speed 33 mph    
Visibility 10 miles    
Events      
Averages and records for this station are not official NWS values.
T = Trace of Precipitation, MM = Missing Value Source: NWS Daily Summary

Daily Weather History Graph

Daily Weather History Graph

Search for Another Location

Airport or City:

Trip Planner

Search our weather history database for the weather conditions in past years. The results will help you decide how hot, cold, wet, or windy it might be!

Date:

Astronomy

Oct. 01, 2013 Rise Set
Actual Time 6:58 AM MDT 6:38 PM MDT
Civil Twilight 6:28 AM MDT 7:08 PM MDT
Nautical Twilight 5:52 AM MDT 7:43 PM MDT
Astronomical Twilight 5:16 AM MDT 8:19 PM MDT
Moon 3:23 AM MDT (10/1) 4:52 PM MDT (10/1)
Length of Visible Light 12h 40m
Length of Day
11h 39m
Waning Crescent, 11% of the Moon is Illuminated
Oct 1
Waning Crescent
Oct 4
New
Oct 11
First Quarter
Oct 18
Full
Oct 26
Last Quarter

Hourly Weather History & Observations

Time (MDT) Temp. Windchill Dew Point Humidity Pressure Visibility Wind Dir Wind Speed Gust Speed Precip Events Conditions
12:15 AM 46.4 °F 41.1 °F 30.2 °F 53% 29.74 in 10.0 mi WSW 11.5 mph - N/A   Clear
12:35 AM 46.4 °F 41.1 °F 30.2 °F 53% 29.75 in 10.0 mi WSW 11.5 mph - N/A   Clear
12:55 AM 46.4 °F 41.1 °F 28.4 °F 50% 29.76 in 10.0 mi WSW 11.5 mph - N/A   Clear
1:15 AM 44.6 °F 38.4 °F 28.4 °F 53% 29.76 in 10.0 mi WSW 12.7 mph - N/A   Clear
1:35 AM 44.6 °F 39.7 °F 28.4 °F 53% 29.77 in 10.0 mi WSW 9.2 mph - N/A   Clear
1:55 AM 42.8 °F 37.0 °F 28.4 °F 57% 29.77 in 10.0 mi SW 10.4 mph - N/A   Clear
2:15 AM 42.8 °F 36.2 °F 28.4 °F 57% 29.78 in 10.0 mi SW 12.7 mph - N/A   Clear
2:35 AM 44.6 °F 38.4 °F 28.4 °F 53% 29.78 in 10.0 mi WSW 12.7 mph - N/A   Clear
2:55 AM 44.6 °F 38.8 °F 28.4 °F 53% 29.78 in 10.0 mi WSW 11.5 mph - N/A   Clear
3:15 AM 44.6 °F 39.2 °F 28.4 °F 53% 29.79 in 10.0 mi WSW 10.4 mph - N/A   Clear
3:55 AM 44.6 °F 38.8 °F 28.4 °F 53% 29.81 in 10.0 mi SW 11.5 mph - N/A   Clear
4:15 AM 41.0 °F 35.8 °F 28.4 °F 61% 29.81 in 10.0 mi SW 8.1 mph - N/A   Clear
4:35 AM 42.8 °F 37.5 °F 28.4 °F 57% 29.82 in 10.0 mi WSW 9.2 mph - N/A   Clear
4:55 AM 39.2 °F 33.6 °F 28.4 °F 65% 29.82 in 10.0 mi SW 8.1 mph - N/A   Clear
5:15 AM 39.2 °F 33.6 °F 28.4 °F 65% 29.83 in 10.0 mi SW 8.1 mph - N/A   Clear
5:35 AM 41.0 °F 35.8 °F 28.4 °F 61% 29.84 in 10.0 mi WSW 8.1 mph - N/A   Clear
5:55 AM 42.8 °F 38.0 °F 28.4 °F 57% 29.84 in 10.0 mi West 8.1 mph - N/A   Clear
6:15 AM 42.8 °F 36.2 °F 28.4 °F 57% 29.84 in 10.0 mi WSW 12.7 mph - N/A   Clear
6:55 AM 44.6 °F 38.8 °F 28.4 °F 53% 29.85 in 10.0 mi WSW 11.5 mph - N/A   Clear
7:15 AM 42.8 °F 37.0 °F 28.4 °F 57% 29.86 in 10.0 mi WSW 10.4 mph - N/A   Clear
7:35 AM 42.8 °F 37.0 °F 28.4 °F 57% 29.87 in 10.0 mi SW 10.4 mph - N/A   Clear
7:55 AM 44.6 °F 38.8 °F 30.2 °F 57% 29.87 in 10.0 mi SW 11.5 mph - N/A   Clear
8:15 AM 46.4 °F 40.4 °F 30.2 °F 53% 29.87 in 10.0 mi WSW 13.8 mph - N/A   Clear
8:35 AM 48.2 °F - 30.2 °F 50% 29.88 in 10.0 mi WSW 13.8 mph - N/A   Clear
8:55 AM 51.8 °F - 30.2 °F 44% 29.89 in 10.0 mi WSW 17.3 mph 21.9 mph N/A   Clear
9:15 AM 53.6 °F - 32.0 °F 44% 29.89 in 10.0 mi West 15.0 mph - N/A   Clear
9:35 AM 55.4 °F - 33.8 °F 44% 29.89 in 10.0 mi West 20.7 mph 27.6 mph N/A   Clear
9:55 AM 57.2 °F - 30.2 °F 36% 29.89 in 10.0 mi West 24.2 mph 32.2 mph N/A   Clear
10:35 AM 60.8 °F - 28.4 °F 29% 29.90 in 10.0 mi West 26.5 mph 33.4 mph N/A   Clear
10:55 AM 60.8 °F - 28.4 °F 29% 29.89 in 10.0 mi West 25.3 mph 29.9 mph N/A   Clear
11:35 AM 62.6 °F - 28.4 °F 27% 29.89 in 10.0 mi West 19.6 mph 31.1 mph N/A   Clear
11:55 AM 62.6 °F - 28.4 °F 27% 29.89 in 10.0 mi West 20.7 mph 28.8 mph N/A   Clear
12:15 PM 64.4 °F - 28.4 °F 26% 29.89 in 10.0 mi West 19.6 mph 25.3 mph N/A   Clear
12:35 PM 64.4 °F - 26.6 °F 24% 29.89 in 10.0 mi West 23.0 mph 27.6 mph N/A   Clear
12:55 PM 64.4 °F - 26.6 °F 24% 29.89 in 10.0 mi West 18.4 mph 27.6 mph N/A   Clear
1:15 PM 66.2 °F - 26.6 °F 23% 29.88 in 10.0 mi West 19.6 mph 26.5 mph N/A   Clear
1:35 PM 66.2 °F - 26.6 °F 23% 29.88 in 10.0 mi West 17.3 mph 25.3 mph N/A   Clear
2:15 PM 66.2 °F - 26.6 °F 23% 29.87 in 10.0 mi WSW 16.1 mph 25.3 mph N/A   Clear
2:35 PM 66.2 °F - 24.8 °F 21% 29.87 in 10.0 mi West 18.4 mph 21.9 mph N/A   Clear
3:15 PM 68.0 °F - 24.8 °F 20% 29.87 in 10.0 mi West 18.4 mph 26.5 mph N/A   Clear
3:35 PM 66.2 °F - 23.0 °F 19% 29.86 in 10.0 mi WSW 19.6 mph 29.9 mph N/A   Clear
3:55 PM 66.2 °F - 23.0 °F 19% 29.87 in 10.0 mi West 13.8 mph 26.5 mph N/A   Clear
4:15 PM 66.2 °F - 23.0 °F 19% 29.87 in 10.0 mi West 16.1 mph 23.0 mph N/A   Clear
4:35 PM 66.2 °F - 24.8 °F 21% 29.87 in 10.0 mi West 13.8 mph 23.0 mph N/A   Clear
4:55 PM 66.2 °F - 24.8 °F 21% 29.87 in 10.0 mi WSW 12.7 mph - N/A   Clear
5:15 PM 66.2 °F - 23.0 °F 19% 29.87 in 10.0 mi West 15.0 mph - N/A   Clear
5:35 PM 64.4 °F - 24.8 °F 22% 29.87 in 10.0 mi WSW 11.5 mph - N/A   Clear
5:55 PM 64.4 °F - 23.0 °F 21% 29.88 in 10.0 mi WSW 8.1 mph - N/A   Clear
6:15 PM 62.6 °F - 24.8 °F 24% 29.88 in 10.0 mi SW 9.2 mph - N/A   Clear
6:35 PM 57.2 °F - 26.6 °F 31% 29.88 in 10.0 mi SSW 8.1 mph - N/A   Clear
7:15 PM 53.6 °F - 26.6 °F 35% 29.88 in 10.0 mi SW 6.9 mph - N/A   Clear
7:35 PM 51.8 °F - 26.6 °F 38% 29.89 in 10.0 mi SW 5.8 mph - N/A   Clear
8:35 PM 44.6 °F 39.7 °F 24.8 °F 46% 29.90 in 10.0 mi West 9.2 mph - N/A   Clear
8:55 PM 44.6 °F 39.2 °F 26.6 °F 49% 29.89 in 10.0 mi West 10.4 mph - N/A   Clear
9:15 PM 44.6 °F 39.2 °F 24.8 °F 46% 29.90 in 10.0 mi NNW 10.4 mph - N/A   Clear
9:55 PM 44.6 °F 40.7 °F 26.6 °F 49% 29.90 in 10.0 mi NW 6.9 mph - N/A   Clear
10:15 PM 46.4 °F 41.9 °F 26.6 °F 46% 29.91 in 10.0 mi NW 9.2 mph - N/A   Partly Cloudy
10:55 PM 50.0 °F - 28.4 °F 43% 29.91 in 10.0 mi Calm Calm - N/A   Mostly Cloudy
11:15 PM 48.2 °F - 28.4 °F 46% 29.91 in 10.0 mi SE 3.5 mph - N/A   Overcast
11:35 PM 46.4 °F 43.5 °F 28.4 °F 50% 29.92 in 10.0 mi SSW 5.8 mph - N/A   Overcast
11:55 PM 46.4 °F 43.5 °F 28.4 °F 50% 29.92 in 10.0 mi WSW 5.8 mph - N/A   Mostly Cloudy